TimeEDT,TemperatureF,Dew PointF,Humidity,Sea Level PressureIn,VisibilityMPH,Wind Direction,Wind SpeedMPH,Gust SpeedMPH,PrecipitationIn,Events,Conditions,WindDirDegrees,DateUTC
12:53 AM,39.0,28.9,67,30.14,10.0,WNW,3.5,-,N/A,,Mostly Cloudy,300,2013-05-13 04:53:00
1:53 AM,39.0,28.9,67,30.14,10.0,West,4.6,-,N/A,,Mostly Cloudy,280,2013-05-13 05:53:00
2:53 AM,37.9,28.0,68,30.13,10.0,West,3.5,-,N/A,,Partly Cloudy,280,2013-05-13 06:53:00
3:53 AM,35.1,28.0,76,30.12,10.0,WSW,3.5,-,N/A,,Clear,250,2013-05-13 07:53:00
4:53 AM,34.0,28.9,82,30.12,10.0,WNW,3.5,-,N/A,,Scattered Clouds,300,2013-05-13 08:53:00
5:53 AM,35.1,28.9,78,30.13,10.0,WNW,3.5,-,N/A,,Mostly Cloudy,290,2013-05-13 09:53:00
6:53 AM,37.0,30.0,76,30.14,10.0,West,3.5,-,N/A,,Overcast,270,2013-05-13 10:53:00
7:53 AM,41.0,28.9,62,30.16,10.0,NW,4.6,-,N/A,,Mostly Cloudy,320,2013-05-13 11:53:00
8:53 AM,43.0,26.1,51,30.18,10.0,NW,9.2,-,N/A,,Scattered Clouds,320,2013-05-13 12:53:00
9:53 AM,46.0,26.1,46,30.19,10.0,NNW,11.5,-,N/A,,Scattered Clouds,340,2013-05-13 13:53:00
10:53 AM,45.0,26.1,48,30.20,10.0,Variable,5.8,-,N/A,,Overcast,0,2013-05-13 14:53:00
11:53 AM,46.9,28.0,48,30.20,10.0,Variable,4.6,-,N/A,,Mostly Cloudy,0,2013-05-13 15:53:00
12:53 PM,48.9,28.9,46,30.20,10.0,WNW,9.2,-,N/A,,Mostly Cloudy,290,2013-05-13 16:53:00
1:53 PM,50.0,28.9,44,30.19,10.0,NNW,10.4,-,N/A,,Overcast,330,2013-05-13 17:53:00
2:53 PM,52.0,28.0,40,30.19,10.0,NNW,10.4,21.9,N/A,,Scattered Clouds,330,2013-05-13 18:53:00
4:53 PM,52.0,27.0,38,30.17,10.0,WNW,5.8,-,N/A,,Mostly Cloudy,300,2013-05-13 20:53:00
5:53 PM,53.1,25.0,34,30.16,10.0,NNW,5.8,-,N/A,,Partly Cloudy,340,2013-05-13 21:53:00
6:53 PM,53.1,25.0,34,30.15,10.0,NW,6.9,-,N/A,,Partly Cloudy,320,2013-05-13 22:53:00
8:53 PM,48.9,27.0,43,30.16,10.0,Calm,Calm,-,N/A,,Clear,0,2013-05-14 00:53:00
9:53 PM,43.0,30.0,60,30.17,10.0,Calm,Calm,-,N/A,,Clear,0,2013-05-14 01:53:00
10:53 PM,39.0,30.9,73,30.18,10.0,Variable,3.5,-,N/A,,Clear,0,2013-05-14 02:53:00
11:53 PM,39.9,30.9,70,30.17,10.0,SE,4.6,-,N/A,,Clear,130,2013-05-14 03:53:00